Regional Weather Roundup
Issued by NWS

Home | Current Version | Previous Version | Graphics & Text | Print | Product List | Glossary On
Versions: 1 2 3 4 5 6 7 8 9 10 11 12 13 14 15 16 17 18 19 20 21 22 23 24 25 26 27 28 29 30 31 32 33 34 35 36 37 38 39 40 41 42 43 44 45 46 47 48 49 50
000
ASUS45 KPSR 161310
RWRAZ

ARIZONA REGIONAL HOURLY WEATHER ROUNDUP
NATIONAL WEATHER SERVICE PHOENIX AZ
600 AM MST TUE SEP 16 2014

NOTE: FAIR INDICATES FEW OR NO CLOUDS BELOW 12,000 FEET WITH NO
SIGNIFICANT WEATHER AND/OR OBSTRUCTIONS TO VISIBILITY.

AZZ001>003-036-161400-
NORTHWEST ARIZONA

CITY           SKY/WX    TMP DP  RH WIND       PRES   REMARKS
BULLHEAD CITY  CLEAR     86  55  35 CALM      29.84R
KINGMAN        CLEAR     75  49  39 SE14      30.03R
$$

AZZ004>008-015-016-018-161400-
NORTH CENTRAL ARIZONA

CITY           SKY/WX    TMP DP  RH WIND       PRES   REMARKS
GRAND CANYON   CLEAR     45  42  89 CALM      30.30R
PRESCOTT       CLEAR     59  49  69 CALM      30.19R
FLAGSTAFF      CLEAR     48  44  86 CALM      30.33R
PAYSON         MOCLDY    68  52  56 E5        30.22R
PAGE           CLEAR     73  49  42 S7        30.15R
$$

AZZ009>014-017-161400-
NORTHEAST ARIZONA

CITY           SKY/WX    TMP DP  RH WIND       PRES   REMARKS
WINSLOW        PTCLDY    66  54  65 E13       30.20R
SAINT JOHNS    CLOUDY    63  55  75 E9        30.24S
WINDOW ROCK    PTCLDY    54  49  83 NE5       30.34R
SHOW LOW       CLOUDY    55  48  76 S7        30.31S
$$

AZZ023-161400-
GREATER PHOENIX AREA

CITY           SKY/WX    TMP DP  RH WIND       PRES   REMARKS
PHOENIX        CLOUDY    85  66  53 S8        29.90R
BUCKEYE          N/A     73  73 100 NW6       29.93R
GLENDALE       MOCLDY    84  66  54 S9        29.93
DEER VALLEY    CLOUDY    83  65  54 E5        29.93R
SCOTTSDALE     CLOUDY    84  65  52 E5        29.95R
MESA-FALCON    MOCLDY    82  64  54 E7        29.92
MESA-GATEWAY   MOCLDY    84  59  42 E6        29.95R
CHANDLER       MOCLDY    84  66  54 CALM      29.93
$$

AZZ027-028-161400-
SOUTHWEST MARICOPA COUNTY AND PINAL COUNTY

CITY           SKY/WX    TMP DP  RH WIND       PRES   REMARKS
CASA GRANDE    CLOUDY    81  66  61 CALM      29.95R
$$

AZZ503-504-507>509-161400-
SOUTHEAST ARIZONA

CITY           SKY/WX    TMP DP  RH WIND       PRES   REMARKS
TUCSON         LGT RAIN  73  66  78 SE16      30.04R
DAVIS-MONTHAN  CLOUDY    71  65  81 SE18      30.02R
RYAN FIELD       N/A     73  66  78 E8        30.03
NOGALES        LGT RAIN  66  63  90 VRB3      30.06F
SIERRA VISTA   LGT RAIN  63  63 100 E3        30.16S
DOUGLAS        RAIN      66  64  93 N7        30.14R
SAFFORD        CLOUDY    73  62  68 E14G22    30.10R
$$

AZZ020-021-025-026-031-161400-
SOUTHWEST ARIZONA

CITY           SKY/WX    TMP DP  RH WIND       PRES   REMARKS
YUMA           MOCLDY    86  72  62 E7        29.81R
$$

CAZ031-033-041-043-047-048-061-161400-
SOUTHERN CALIFORNIA

CITY           SKY/WX    TMP DP  RH WIND       PRES   REMARKS
DOWNTOWN L.A.  CLEAR     77  63  61 CALM      29.75S
L.A. AIRPORT   CLEAR     74  63  68 E5        29.76S
SAN DIEGO      PTCLDY    76  68  76 CALM      29.76R
BURBANK        CLEAR     79  52  38 CALM      29.79R
ONTARIO        CLEAR     79  57  46 NE3       29.79F
RIVERSIDE      CLEAR     75  59  57 E5        29.80R
PALM SPRINGS   CLEAR     87  75  67 CALM      29.86R
EL CENTRO NAS  PTCLDY    86  70  58 E9        29.77R
IMPERIAL       CLEAR     86  70  58 E7        29.77R
BLYTHE         CLEAR     85  73  67 S6        29.84R
NEEDLES        CLEAR     90  64  42 SW10      29.85R
$$

NVZ020-UTZ003-161400-
SOUTHERN NEVADA-UTAH

CITY           SKY/WX    TMP DP  RH WIND       PRES   REMARKS
LAS VEGAS      PTCLDY    81  51  35 SW6       29.88R
SALT LAKE CITY PTCLDY    62  44  51 SE7       30.10R
$$

NMZ009-TXZ055-161400-
NEW MEXICO-WEST TEXAS

CITY           SKY/WX    TMP DP  RH WIND       PRES   REMARKS
ALBUQUERQUE    CLOUDY    66  55  67 E7        30.30R
EL PASO        LGT RAIN  66  64  93 N12       30.19S
$$


........................KEY........................
SKY/WX - SKY CONDITION/WEATHER
TMP    - TEMPERATURE IN FAHRENHEIT
DP     - DEW POINT IN FAHRENHEIT
RH     - RELATIVE HUMIDITY IN PERCENT
WIND   - DIRECTION AND SPEED IN MILES PER HOUR (MPH)
VRB    - VARIABLE WIND DIRECTION
PRES   - MEAN SEA LEVEL PRESSURE IN INCHES OF MERCURY
         F - FALLING PRESSURE   R - RISING PRESSURE
         S - STEADY PRESSURE
VSB    - VISIBILITY IN MILES
HX     - HEAT INDEX IN FAHRENHEIT
WCI    - WIND CHILL INDEX IN FAHRENHEIT
TC     - TEMPERATURE IN CELSIUS WHICH IS ALSO KNOWN AS
         TEMPERATURE IN CENTIGRADE
AFB    - AIR FORCE BASE
         LUKE AFB IS LUKE AIR FORCE BASE
         DAVIS-MONTHAN IS DAVIS-MONTHAN AIR FORCE BASE
NAS    - NAVAL AIR STATION
         EL CENTRO NAS IS EL CENTRO NAVAL AIR STATION
N/A    - NOT AVAILABLE


USA.gov is the U.S. government's official web portal to all federal, state and local government web resources and services.